Location: Christchurch
(43.5330°S, 172.6330°E)
Time: 23:47:13
(UTC+13:00)

Resurs 1-3 - Pass Details

Date: 24 January 2019
Orbit: 630 x 632 km, 98.0° (Epoch: 17 October)

Event Time Altitude Azimuth Distance (km) Brightness Sun altitude
Rises 21:46:16 0° 157° (SSE) 2,965 7.2 -7.3°
Reaches altitude 10° 21:48:44 10° 145° (SE) 2,047 6.3 -7.7°
Maximum altitude 21:52:37 29° 85° (E) 1,185 4.6 -8.3°
Drops below altitude 10° 21:56:27 10° 24° (NNE) 2,022 5.7 -8.8°
Enters shadow 21:57:11 - 20° (NNE) 2,281 6.0 -8.9°
